Home   Weather   Ilioupoli   Past weeks

Flag for Greece Past Weather in Ilioupoli, Greece — Yesterday and Last 2 Weeks

Now
68 °F

Scattered clouds.


Feels Like: 68 °F
Forecast: 63 / 74 °F
Wind: 8 mph from North

Location: Eleftherios Venizelos International Airport

Current Time: Sep 27, 2016 at 10:10:58 AM

Latest Report: Sep 27, 2016 at 9:20 AM


Visibility: N/A

Pressure: 30.15 "Hg

Humidity: 56%

Dew Point: 52 °F

Location of IlioupoliLocation

Past Weather in Ilioupoli — Graph

°F

Ilioupoli Temperature Yesterday

Maximum temperature yesterday: 77 °F (at 2:50 PM)
Minimum temperature yesterday: 55 °F (at 2:50 AM)
Average temperature yesterday: 67 °F

High & Low Weather Summary for the Past Weeks

 TemperatureHumidityPressure
High95 °F (Sep 18, 1:50 PM)94% (Sep 22, 1:50 AM)30.27 "Hg (Sep 22, 1:50 AM)
Low55 °F (Sep 26, 2:50 AM)23% (Sep 18, 1:50 PM)29.71 "Hg (Sep 20, 4:50 AM)
Average73 °F53%29.99 "Hg
* Reported Sep 12 8:20 AM — Sep 27 8:50 AM, Ilioupoli, Weather by CustomWeather, © 2016

Note: Actual official high and low records may vary slightly from our data, if they occured in-between our weather recording intervals... More about our weather records

Advertising

Ilioupoli Weather History for the Previous 24 Hours

Scroll right to see more
 ConditionsComfort  
Time TempWeatherWind HumidityBarometerVisibility
8:50 AM
Tue, Sep 27
64 °FScattered clouds.6 mph68%30.15 "HgN/A
7:50 AM63 °FScattered clouds.6 mph68%30.12 "HgN/A
7:20 AM63 °FScattered clouds.9 mph68%30.12 "HgN/A
6:50 AM63 °FPassing clouds.9 mph68%30.12 "HgN/A
6:20 AM61 °FPassing clouds.5 mph72%30.12 "HgN/A
5:50 AM61 °FPassing clouds.8 mph72%30.09 "HgN/A
5:20 AM63 °FPassing clouds.8 mph68%30.09 "HgN/A
4:50 AM63 °FPassing clouds.10 mph68%30.12 "HgN/A
4:20 AM64 °FPassing clouds.8 mph64%30.09 "HgN/A
3:50 AM64 °FPassing clouds.10 mph64%30.09 "HgN/A
3:20 AM64 °FPassing clouds.13 mph64%30.09 "HgN/A
2:50 AM66 °FPassing clouds.14 mph60%30.09 "HgN/A
2:20 AM66 °FPassing clouds.12 mph60%30.12 "HgN/A
1:50 AM66 °FPassing clouds.10 mph56%30.12 "HgN/A
1:20 AM66 °FPassing clouds.8 mph56%30.12 "HgN/A
12:50 AM64 °FPassing clouds.7 mph60%30.12 "HgN/A
12:20 AM64 °FPassing clouds.2 mph56%30.12 "HgN/A
11:50 PM
Mon, Sep 26
66 °FPassing clouds.7 mph52%30.12 "HgN/A
11:20 PM64 °FPassing clouds.9 mph56%30.12 "HgN/A
10:50 PM66 °FPassing clouds.14 mph56%30.09 "HgN/A
10:20 PM66 °FPassing clouds.2 mph52%30.09 "HgN/A
9:50 PM66 °FPassing clouds.1 mph52%30.09 "HgN/A
9:20 PM66 °FPassing clouds.3 mph52%30.09 "HgN/A
8:50 PM66 °FPassing clouds.6 mph52%30.09 "HgN/A
8:20 PM68 °FPassing clouds.9 mph49%30.07 "HgN/A
7:50 PM68 °FPassing clouds.12 mph49%30.07 "HgN/A
7:20 PM68 °FPassing clouds.13 mph46%30.07 "HgN/A
6:50 PM70 °FPassing clouds.15 mph43%30.04 "HgN/A
6:20 PM72 °FPassing clouds.18 mph41%30.04 "HgN/A
5:50 PM72 °FPassing clouds.22 mph44%30.04 "HgN/A
5:20 PM73 °FPassing clouds.21 mph41%30.04 "HgN/A
4:50 PM75 °FPassing clouds.18 mph36%30.04 "HgN/A
4:20 PM75 °FPassing clouds.21 mph36%30.04 "HgN/A
3:50 PM75 °FPassing clouds.17 mph41%30.04 "HgN/A
3:20 PM75 °FPassing clouds.16 mph41%30.04 "HgN/A
2:50 PM77 °FPassing clouds.15 mph39%30.04 "HgN/A
2:20 PM73 °FPassing clouds.16 mph41%30.04 "HgN/A
1:50 PM73 °FPassing clouds.17 mph41%30.04 "HgN/A
1:20 PM73 °FPassing clouds.18 mph41%30.04 "HgN/A
12:50 PM73 °FPassing clouds.16 mph44%30.07 "HgN/A
12:20 PM73 °FPassing clouds.14 mph41%30.04 "HgN/A
11:50 AM72 °FPassing clouds.13 mph44%30.04 "HgN/A
11:20 AM72 °FPassing clouds.16 mph47%30.04 "HgN/A
10:50 AM70 °FPassing clouds.14 mph50%30.04 "HgN/A
10:20 AM70 °FPassing clouds.14 mph50%30.04 "HgN/A
Weather by CustomWeather, © 2016

See weather overviewHow to use our weather pages